Location: Claflin County Park
(44.8478°N, 87.5507°W)
Time: 02:33:58
(UTC+00:00)

Nadezhda 4 Rocket - Pass Details

Date: 10 December 2025
Orbit: 948 x 992 km, 82.9° (Epoch: 12 January)

Event Time Altitude Azimuth Distance (km) Brightness Sun altitude
Rises 11:06:58 0° 202° (SSW) 3,690 6.9 -22.2°
Reaches altitude 10° 11:09:34 10° 207° (SSW) 2,743 6.2 -21.7°
Maximum altitude 11:15:40 51° 283° (WNW) 1,220 4.1 -20.7°
Drops below altitude 10° 11:21:47 10° 359° (N) 2,737 6.2 -19.6°
Sets 11:24:23 0° 5° (N) 3,683 6.9 -19.2°
